Regional Weather Roundup
Issued by NWS

Home | Current Version | Previous Version | Graphics & Text | Print | Product List | Glossary On
Versions: 1 2 3 4 5 6 7 8 9 10 11 12 13 14 15 16 17 18 19 20 21 22 23 24 25 26 27 28 29 30 31 32 33 34 35 36 37 38 39 40 41 42 43 44 45 46 47 48 49 50
000
ASUS43 KLMK 220402
RWRKY
KENTUCKY REGIONAL WEATHER ROUNDUP
NATIONAL WEATHER SERVICE LOUISVILLE KY
1100 PM EST SAT JAN 21 2017

NOTE "FAIR" INDICATES FEW OR NO CLOUDS BELOW 12,000 FEET
WITH NO SIGNIFICANT WEATHER AND/OR OBSTRUCTIONS TO VISIBILITY.

KYZ001>023-026-027-061>063-070>075-220500-
WESTERN AND SOUTH CENTRAL KENTUCKY

CITY           SKY/WX    TMP DP  RH WIND       PRES   REMARKS
PADUCAH        CLOUDY    61  49  64 S6        29.56S
HENDERSON      PTCLDY    48  46  93 SE8       29.59R
OWENSBORO      CLOUDY    56  49  77 SE6       29.61F
HOPKINSVILLE   CLOUDY    57  50  75 SE5       29.60S
BOWLING GREEN  CLEAR     55  49  80 NE6       29.62F
GLASGOW        NOT AVBL
$$

KYZ024-025-028>034-038-045-046-053-220500-
NORTH CENTRAL KENTUCKY

CITY           SKY/WX    TMP DP  RH WIND       PRES   REMARKS
LOUISVILLE/SDF CLOUDY    56  48  74 SE6       29.64S
LOUISVILLE/LOU PTCLDY    54  49  83 CALM      29.65R
FORT KNOX      CLOUDY    54  47  77 SE3       29.63S
$$

KYZ035>037-039>044-047>052-055>060-089>105-220500-
NORTHEAST KENTUCKY

CITY           SKY/WX    TMP DP  RH WIND       PRES   REMARKS
LEXINGTON      CLOUDY    55  49  80 SE6       29.67S
COVINGTON      MOCLDY    56  53  90 CALM      29.65R
FRANKFORT      MOCLDY    53  48  83 S3        29.65S
$$

KYZ054-064>069-076>088-106>120-220500-
SOUTHEAST KENTUCKY

CITY           SKY/WX    TMP DP  RH WIND       PRES   REMARKS
JACKSON        CLOUDY    56  50  80 CALM      29.66S
LONDON         FOG       48  45  89 CALM      29.67R VSB 1/2
SOMERSET       NOT AVBL
MIDDLESBORO    PTCLDY    44  44 100 CALM      29.68S FOG
MONTICELLO     CLOUDY    45  45 100 N10       29.70R
$$





USA.gov is the U.S. government's official web portal to all federal, state and local government web resources and services.